Погода во Владимирском Тупике

Россия / Смоленская область     55°41′34″N   33°18′19″E
темп.,
°C
ветер,
м/с
пор.,
м/с
влажн.,
%
обл.,
%
осадки,
мм/ч
давл.,
гПа
погр.,
м
20 января, чт
чт2000:00−2юз51296100 0.1 1008621
03:00−2юз51196100 0.1 1006530
06:00−2ююз51196100 0.0 1004478
09:00−2ююз51395100 0.0 1002504
12:00−2ю61695100 0.1 999624
15:00−1ю61494100 0.1 996849
18:00−2ююз61395100 0.6 995936
21:00−2ююз61394100 1.7 995898
21 января, пт
пт2100:00−3ююз51289100 0.1 996679
03:00−5ю4129387 0.1 996606
06:00−4ю31096100 1.0 994750
09:00−6ю4109164 1.5 994387
12:00−7ююв4109396 0.0 994442
15:00−6юв3994100 0.0 994464
18:00−8вюв3896100 0.1 994305
21:00−8в3696100 0.4 995178
22 января, сб
сб2200:00−8всв3796100 0.4 997197
03:00−9всв379699 0.4 999207
06:00−11св279783 0.1 1001165
09:00−15св279998 0.1 1004107
12:00−10св369699 0.0 1006199
15:00−7ссв2694100 0.1 1008374
18:00−11ссв129899 0.1 101243
21:00−11ссв119987 0.1 101429
23 января, вс
вс2300:00−12ссв249878 0.1 101689
03:00−14св249883 0.1 101981
06:00−17всв2210090 0.1 102131
09:00−17всв2410096 0.1 102456
12:00−10всв259593 0.0 1026170
15:00−8св249491 0.0 1027272
18:00−15св2210083 0.0 103125
21:00−16всв2510098 0.0 103279
24 января, пн
пн2400:00−18всв23100100 0.0 103443
03:00−21св11100100 0.0 10359
06:00−21всв21100100 0.0 103427
09:00−21всв11100100 0.0 103410
12:00−12вюв249477 0.0 1032143
15:00−9с019268 0.0 1031151
18:00−16в1110074 0.0 10309
21:00−20ююв1110095 0.0 10309